Location: LDNL
(36.4545°S, 141.6685°E)
Time: 23:07:23
(UTC+11:00)

Vanguard 1 Rocket - Visible Passes

Search period start: 30 January 2023 00:00
Search period end: 09 February 2023 00:00
Orbit: 650 x 4225 km, 34.3° (Epoch: 29 January)

Date Brightness Start Highest point End Pass type
(mag) Time Alt. Az. Time Alt. Az. Time Alt. Az.
30 Jan 9.0 02:39:09 35° ENE 02:39:09 35° ENE 02:42:41 10° E visible
30 Jan 7.4 04:56:23 23° W 05:01:35 75° N 05:06:37 10° E visible
30 Jan 10.9 22:42:43 10° N 22:50:17 17° NNE 22:50:17 17° NNE visible
31 Jan 10.2 01:31:31 12° E 01:31:31 12° E 01:31:52 10° E visible
31 Jan 7.9 03:48:46 60° NW 03:50:15 72° N 03:56:10 10° E visible
31 Jan 7.2 06:08:48 10° W 06:15:26 60° NNW 06:19:57 10° ENE visible
31 Jan 10.9 21:34:50 10° NNE 21:41:30 12° NE 21:44:30 12° NE visible
31 Jan 10.7 23:54:32 10° NNW 00:01:56 23° NNW 00:01:56 23° NNW visible
01 Feb 8.7 02:41:08 46° ENE 02:41:08 46° ENE 02:45:39 10° E visible
01 Feb 7.5 04:58:22 19° W 05:04:25 74° N 05:09:32 10° E visible
01 Feb 10.4 22:41:45 10° NNW 22:56:18 26° NNE 22:56:18 26° NNE visible
02 Feb 9.9 01:09:41 10° NW 01:33:29 18° E 01:34:56 10° E visible
02 Feb 7.9 03:50:43 53° WNW 03:53:02 77° N 03:59:06 10° E visible
02 Feb 7.4 06:11:29 10° W 06:18:11 51° NNW 06:22:40 10° NE visible
02 Feb 10.6 21:30:58 10° N 21:44:09 18° NE 21:50:49 15° ENE visible
02 Feb 10.2 23:55:13 10° NW 00:25:49 - E 00:08:16 36° N visible
03 Feb 8.5 02:43:04 59° ENE 02:43:04 59° ENE 02:48:35 10° E visible
03 Feb 7.5 05:00:18 17° W 05:07:13 70° N 05:12:24 10° ENE visible
03 Feb 10.0 22:41:36 10° NNW 23:00:19 34° NNE 23:02:54 33° NE visible
04 Feb 9.7 01:11:19 10° WNW 01:35:24 24° E 01:37:54 10° E visible
04 Feb 8.0 03:52:39 46° WNW 03:55:50 78° N 04:02:00 10° E visible
04 Feb 7.7 06:14:13 10° W 06:20:51 41° NNW 06:25:17 10° NE visible
04 Feb 10.6 21:29:30 10° N 21:46:39 25° NE 21:57:37 13° ENE visible
04 Feb 9.6 23:56:17 10° NW 00:27:45 - E 00:15:05 52° N visible
05 Feb 8.4 02:28:46 10° WNW 02:45:00 71° NE 02:51:30 10° E visible
05 Feb 7.6 05:02:14 14° W 05:09:57 63° NNW 05:15:12 10° ENE visible
05 Feb 10.0 22:42:00 10° NNW 23:02:48 42° NNE 23:09:52 29° ENE visible
06 Feb 9.5 01:13:09 10° WNW 01:37:21 31° E 01:40:49 10° E visible
06 Feb 8.0 03:54:37 41° W 03:58:36 77° N 04:04:53 10° ENE visible
06 Feb 8.1 06:17:01 10° W 06:23:24 32° NNW 06:27:44 10° NNE visible
06 Feb 10.6 21:29:02 10° NNW 21:49:01 32° NE 22:02:46 10° E visible
06 Feb 9.4 23:57:38 10° NW 00:18:43 61° NNE 00:29:51 10° E visible
07 Feb 8.5 02:31:03 10° W 02:47:04 79° NNE 02:54:24 10° E visible
07 Feb 7.8 05:04:19 13° W 05:12:38 54° NNW 05:17:57 10° NE visible
07 Feb 10.0 22:42:49 10° NW 23:05:13 50° NNE 23:16:40 17° E visible
08 Feb 9.0 01:15:09 10° WNW 01:39:40 36° E 01:43:42 10° E visible
08 Feb 8.1 03:48:47 10° W 04:01:20 73° NNW 04:07:45 10° ENE visible
08 Feb 8.4 06:19:59 10° W 06:25:49 24° NW 06:29:56 10° NNE visible
08 Feb 10.5 21:29:11 10° NNW 21:51:18 40° NNE 22:06:10 10° E visible
